Location: Duncanville
(32.6518°N, 96.9083°W)
Time: 10:11:31
(UTC+00:00)

Cosmos 2297 Rocket - Pass Details

Date: 11 February 2026
Orbit: 838 x 843 km, 71.0° (Epoch: 8 March)

Event Time Altitude Azimuth Distance (km) Brightness Sun altitude
Exits shadow 12:09:42 16° 307° (NW) 2,067 3.7 -14.1°
Maximum altitude 12:13:10 29° 258° (WSW) 1,496 3.0 -13.4°
Drops below altitude 10° 12:17:56 10° 199° (SSW) 2,446 4.5 -12.4°
Sets 12:20:39 0° 189° (S) 3,375 5.3 -11.8°
